FW8473 Weather Reports


time (UTC)temp
C
wind
direction
speed
KPH
gust
KPH
rain 1hr
cm
rain 24hr
cm
rain mn
cm
humidity
%
barometer
mb
20260506114535 4 0 0.0 1.6 0.00 0.08 0.00 83 1018.1
20260506114028 4 0 0.0 1.6 0.00 0.08 0.00 82 1017.9
20260506113528 4 0 0.0 1.6 0.00 0.08 0.00 82 1017.9
20260506113035 4 0 0.0 0.0 0.00 0.08 0.00 81 1017.9
20260506112529 5 0 0.0 0.0 0.00 0.08 0.00 81 1017.8
20260506112028 5 0 0.0 0.0 0.00 0.08 0.00 80 1017.9
20260506111541 5 0 0.0 0.0 0.00 0.08 0.00 80 1017.8
20260506111032 5 0 0.0 0.0 0.00 0.08 0.00 79 1017.9
20260506110529 5 0 0.0 0.0 0.00 0.08 0.00 79 1017.8
20260506110038 5 0 0.0 0.0 0.00 0.08 0.00 79 1017.7
20260506105531 5 0 0.0 0.0 0.00 0.08 0.00 79 1017.6
20260506105027 5 0 0.0 0.0 0.00 0.08 0.00 79 1017.6
20260506104545 5 0 0.0 0.0 0.00 0.08 0.00 78 1017.5
20260506104027 5 0 0.0 1.6 0.00 0.08 0.00 77 1017.4
20260506103529 6 0 0.0 1.6 0.00 0.08 0.00 77 1017.4
20260506103044 6 0 0.0 1.6 0.00 0.08 0.00 77 1017.4
20260506102531 6 0 0.0 1.6 0.00 0.08 0.00 77 1017.4
20260506102029 6 0 0.0 1.6 0.00 0.08 0.00 77 1017.3
20260506101536 6 0 0.0 0.0 0.00 0.08 0.00 76 1017.1
20260506101028 6 0 0.0 0.0 0.00 0.08 0.00 76 1017.1
20260506100530 6 0 0.0 0.0 0.00 0.08 0.00 75 1017.1
20260506100035 6 0 0.0 0.0 0.00 0.08 0.00 74 1017.1
20260506095528 6 0 0.0 0.0 0.00 0.08 0.00 74 1017.0
20260506095030 7 0 0.0 0.0 0.00 0.08 0.00 74 1017.0
20260506094541 7 0 0.0 0.0 0.00 0.08 0.00 73 1017.0
20260506094027 7 0 0.0 0.0 0.00 0.08 0.00 73 1017.0
20260506093528 7 0 0.0 0.0 0.00 0.08 0.00 73 1017.1
20260506093036 7 0 0.0 0.0 0.00 0.08 0.00 72 1017.0
20260506092529 7 0 0.0 0.0 0.00 0.08 0.00 72 1017.0
20260506092029 7 0 0.0 0.0 0.00 0.08 0.00 72 1017.0
20260506091537 7 0 0.0 0.0 0.00 0.08 0.00 71 1017.0
20260506091029 8 0 0.0 0.0 0.00 0.08 0.00 71 1017.1
20260506090528 8 0 0.0 0.0 0.00 0.08 0.00 71 1017.1
20260506090043 8 0 0.0 0.0 0.00 0.08 0.00 71 1017.1
20260506085532 8 0 0.0 0.0 0.00 0.08 0.00 70 1017.1
20260506085028 8 0 0.0 0.0 0.00 0.08 0.00 69 1017.2
20260506084610 8 0 0.0 0.0 0.00 0.08 0.00 69 1017.1
20260506084028 8 0 0.0 0.0 0.00 0.08 0.00 69 1017.0
20260506083530 8 0 0.0 0.0 0.00 0.08 0.00 69 1017.1
20260506083040 8 0 0.0 0.0 0.00 0.08 0.00 69 1017.1
20260506082527 9 0 0.0 0.0 0.00 0.08 0.00 69 1017.1
20260506082029 9 0 0.0 3.2 0.00 0.08 0.00 68 1017.2
20260506081549 9 0 0.0 3.2 0.00 0.08 0.00 68 1017.2
20260506081032 9 0 0.0 3.2 0.00 0.08 0.00 67 1017.3
20260506080529 9 0 0.0 9.7 0.00 0.08 0.00 69 1017.2
20260506073528 9 354 6.4 9.7 0.00 0.08 0.00 70 1017.2
20260506073044 9 354 3.2 9.7 0.00 0.08 0.00 73 1017.3
20260506072527 9 0 0.0 1.6 0.00 0.08 0.00 74 1017.3
20260506072029 9 0 0.0 1.6 0.00 0.08 0.00 75 1017.3
20260506071541 9 0 0.0 1.6 0.00 0.08 0.00 75 1017.2
20260506071028 9 0 0.0 0.0 0.00 0.08 0.00 75 1017.1
20260506070528 10 0 0.0 0.0 0.00 0.08 0.00 75 1017.2
20260506062028 10 0 0.0 0.0 0.00 0.08 0.00 71 1016.9
20260506061543 10 0 0.0 3.2 0.00 0.08 0.00 71 1016.8
20260506061028 10 0 0.0 6.4 0.00 0.08 0.00 71 1016.8
20260506060531 10 354 0.0 6.4 0.00 0.08 0.00 71 1016.8
20260506051029 11 0 0.0 3.2 0.00 0.08 0.08 68 1016.3
20260506050529 11 0 0.0 3.2 0.00 0.08 0.08 67 1016.3
20260506045028 12 0 0.0 6.4 0.00 0.08 0.08 65 1016.3
20260506044538 12 354 1.6 4.8 0.00 0.08 0.08 64 1016.4
20260506044028 12 0 0.0 12.9 0.00 0.08 0.08 64 1016.4
20260506043533 12 0 3.2 12.9 0.00 0.08 0.08 64 1016.4
20260506043040 12 354 6.4 12.9 0.00 0.08 0.08 63 1016.4
20260506042528 12 354 3.2 9.7 0.00 0.08 0.08 63 1016.3
20260506042029 12 0 0.0 14.5 0.00 0.08 0.08 62 1016.3
20260506041537 12 354 6.4 14.5 0.00 0.08 0.08 62 1016.0
20260506041028 12 354 6.4 12.9 0.00 0.08 0.08 62 1015.8
20260506040531 12 0 3.2 14.5 0.00 0.08 0.08 61 1015.9
20260506040038 13 354 4.8 14.5 0.00 0.08 0.08 61 1015.8
20260506035528 13 354 4.8 17.7 0.00 0.08 0.08 61 1015.7
20260506035028 13 354 6.4 17.7 0.00 0.08 0.08 60 1015.5
20260506034536 13 354 9.7 17.7 0.00 0.08 0.08 60 1015.4
20260506034029 13 354 6.4 17.7 0.00 0.08 0.08 60 1015.2
20260506033529 13 354 9.7 19.3 0.00 0.08 0.08 60 1014.9
20260506033039 13 354 11.3 19.3 0.00 0.08 0.08 62 1014.8
20260506032528 13 354 8.0 16.1 0.00 0.08 0.08 63 1014.7
20260506032028 13 354 6.4 16.1 0.00 0.08 0.08 64 1014.5
20260506031541 13 354 6.4 12.9 0.00 0.08 0.08 64 1014.4
20260506031029 13 354 1.6 4.8 0.00 0.08 0.08 64 1014.3
20260506030529 13 0 0.0 0.0 0.00 0.08 0.08 62 1014.0
20260506030035 13 0 0.0 0.0 0.00 0.08 0.08 62 1013.9
20260506025529 13 0 0.0 0.0 0.00 0.08 0.08 61 1013.9
20260506025028 14 0 0.0 0.0 0.00 0.08 0.08 61 1013.8
20260506024544 14 0 0.0 0.0 0.00 0.08 0.08 60 1013.6
20260506024028 14 0 0.0 0.0 0.00 0.08 0.08 59 1013.5
20260506023529 14 0 0.0 0.0 0.00 0.08 0.08 59 1013.5
20260506023058 14 0 0.0 0.0 0.00 0.08 0.08 59 1013.5
20260506022530 15 0 0.0 0.0 0.00 0.08 0.08 58 1013.5
20260506022029 15 0 0.0 1.6 0.00 0.08 0.08 58 1013.3
20260506021602 15 0 0.0 1.6 0.00 0.08 0.08 58 1013.3
20260506021030 15 0 0.0 1.6 0.00 0.08 0.08 57 1013.2
20260506020528 15 0 0.0 0.0 0.00 0.08 0.08 56 1012.9
20260506020036 15 0 0.0 0.0 0.00 0.08 0.08 55 1012.9
20260506015529 16 0 0.0 3.2 0.00 0.08 0.08 54 1012.5
20260506015031 16 0 0.0 3.2 0.00 0.08 0.08 54 1012.5
20260506014536 16 0 0.0 4.8 0.00 0.08 0.08 53 1012.6
20260506014028 16 0 0.0 4.8 0.00 0.08 0.08 54 1012.5
20260506013528 16 0 0.0 4.8 0.00 0.08 0.08 53 1012.6
20260506013050 16 354 1.6 4.8 0.00 0.08 0.08 53 1012.6
20260506012529 16 354 1.6 6.4 0.00 0.08 0.08 52 1012.5
20260506012029 16 0 1.6 8.0 0.00 0.08 0.08 52 1012.7
20260506011546 16 354 3.2 8.0 0.00 0.08 0.08 51 1012.7
20260506011028 17 354 3.2 8.0 0.00 0.08 0.08 51 1012.7
20260506010528 17 354 1.6 6.4 0.00 0.08 0.08 51 1012.7
20260506010037 17 354 0.0 4.8 0.00 0.08 0.08 49 1012.6
20260506005528 17 0 0.0 1.6 0.00 0.08 0.08 48 1012.5
20260506005032 17 0 0.0 6.4 0.00 0.08 0.08 48 1012.3
20260506004535 17 0 0.0 6.4 0.00 0.08 0.08 47 1012.2
20260506004029 17 354 0.0 4.8 0.00 0.08 0.08 47 1012.3
20260506003528 17 0 1.6 4.8 0.00 0.08 0.08 46 1012.3
20260506003042 17 354 0.0 6.4 0.00 0.08 0.08 45 1012.4
20260506002528 18 0 1.6 8.0 0.00 0.08 0.08 45 1012.4
20260506002031 18 354 3.2 8.0 0.00 0.08 0.08 44 1012.3
20260506001559 18 354 3.2 9.7 0.00 0.08 0.08 44 1012.3
20260506001028 18 354 3.2 12.9 0.00 0.08 0.08 45 1012.2
20260506000530 18 354 3.2 12.9 0.00 0.08 0.08 45 1012.1
20260506000038 18 354 3.2 12.9 0.00 0.08 0.08 43 1012.1
20260505235528 18 354 1.6 12.9 0.00 0.08 0.08 46 1012.1
20260505235028 18 0 1.6 12.9 0.00 0.08 0.08 46 1012.3
20260505234536 17 354 6.4 12.9 0.00 0.08 0.08 47 1012.5
20260505234029 17 354 3.2 9.7 0.00 0.08 0.08 47 1012.4
20260505233528 17 354 4.8 14.5 0.00 0.08 0.08 47 1012.4
20260505233037 17 354 3.2 14.5 0.00 0.08 0.08 48 1012.5
20260505232531 17 354 8.0 17.7 0.00 0.08 0.08 48 1012.6
20260505232030 17 354 3.2 17.7 0.00 0.08 0.08 50 1012.6
20260505231600 17 354 4.8 20.9 0.00 0.08 0.08 51 1012.8
20260505231028 17 354 9.7 20.9 0.00 0.08 0.08 51 1012.7
20260505230528 16 354 8.0 16.1 0.00 0.08 0.08 52 1012.7
20260505230049 16 354 9.7 16.1 0.00 0.08 0.08 51 1012.8
20260505225528 17 354 9.7 16.1 0.00 0.08 0.08 49 1012.8
20260505225028 17 354 6.4 14.5 0.00 0.08 0.08 48 1012.6
20260505224536 17 354 6.4 19.3 0.00 0.08 0.08 49 1012.8
20260505224027 16 354 9.7 19.3 0.00 0.08 0.08 52 1012.8
20260505223528 16 354 9.7 20.9 0.00 0.08 0.08 53 1012.8
20260505223035 16 354 12.9 25.7 0.00 0.08 0.08 55 1012.9
20260505222528 16 355 12.9 25.7 0.00 0.08 0.08 55 1013.1
20260505222030 15 355 14.5 27.4 0.00 0.08 0.08 59 1013.2
20260505221536 16 356 14.5 27.4 0.00 0.08 0.08 59 1013.4
20260505221028 16 356 14.5 27.4 0.00 0.08 0.08 58 1013.4
20260505220528 16 358 17.7 27.4 0.00 0.08 0.08 57 1013.4
20260505220045 16 357 14.5 24.1 0.00 0.08 0.08 58 1013.5
20260505215528 16 357 11.3 20.9 0.00 0.08 0.08 61 1013.6
20260505215028 15 357 11.3 24.1 0.00 0.08 0.08 60 1013.6
20260505214552 15 358 11.3 24.1 0.00 0.08 0.08 61 1013.8
20260505214027 16 358 12.9 20.9 0.00 0.08 0.08 61 1013.9
20260505213527 16 358 11.3 24.1 0.00 0.08 0.08 59 1013.7
20260505213040 16 359 11.3 24.1 0.00 0.08 0.08 56 1013.7
20260505212529 16 360 11.3 17.7 0.00 0.08 0.08 55 1013.3
20260505212030 16 360 11.3 22.5 0.00 0.08 0.08 55 1013.2
20260505211536 16 360 9.7 22.5 0.00 0.08 0.08 56 1013.1
20260505211029 17 360 11.3 22.5 0.00 0.08 0.08 54 1013.0
20260505210530 17 3 8.0 22.5 0.00 0.08 0.08 55 1013.1
20260505210044 17 360 6.4 9.7 0.00 0.08 0.08 54 1013.1
20260505205532 17 360 0.0 9.7 0.00 0.08 0.08 58 1013.3
20260505205031 17 0 1.6 9.7 0.00 0.08 0.08 57 1013.2
20260505204541 17 360 4.8 9.7 0.00 0.08 0.08 65 1013.3
20260505204031 16 0 3.2 8.0 0.00 0.08 0.08 71 1013.3
20260505203528 16 3 3.2 9.7 0.00 0.08 0.08 70 1013.7
20260505203053 16 0 1.6 14.5 0.00 0.08 0.08 66 1014.1
20260505202531 16 3 6.4 14.5 0.00 0.08 0.08 56 1014.4
20260505202031 16 360 6.4 14.5 0.00 0.08 0.08 56 1014.3
20260505201544 16 360 4.8 14.5 0.00 0.08 0.08 54 1014.2
20260505201029 17 360 6.4 17.7 0.00 0.08 0.08 55 1013.9
20260505200532 17 360 8.0 17.7 0.00 0.08 0.08 53 1013.8
20260505200045 17 360 3.2 14.5 0.00 0.08 0.08 53 1013.8
20260505195528 17 360 3.2 14.5 0.00 0.08 0.08 54 1013.8
20260505195028 17 360 6.4 14.5 0.00 0.08 0.08 57 1013.9
20260505194543 16 0 0.0 17.7 0.00 0.08 0.08 58 1013.7
20260505194031 16 360 4.8 17.7 0.00 0.08 0.08 59 1013.8
20260505193531 16 360 6.4 20.9 0.00 0.08 0.08 60 1013.9
20260505193042 16 360 9.7 20.9 0.00 0.08 0.08 60 1013.9
20260505192528 16 360 11.3 22.5 0.00 0.08 0.08 60 1014.1
20260505192028 16 360 9.7 22.5 0.00 0.08 0.08 64 1014.1
20260505191541 15 3 11.3 22.5 0.00 0.08 0.08 67 1014.4
20260505191028 15 360 11.3 20.9 0.00 0.08 0.08 69 1014.3
20260505190528 15 360 9.7 20.9 0.00 0.08 0.08 73 1014.5
20260505190039 14 360 8.0 17.7 0.00 0.08 0.08 75 1014.4
20260505185528 14 3 8.0 19.3 0.00 0.08 0.08 76 1014.7
20260505185028 14 3 8.0 22.5 0.00 0.08 0.08 75 1014.8
20260505184538 15 360 8.0 22.5 0.00 0.08 0.08 70 1014.9
20260505184034 15 360 8.0 14.5 0.00 0.08 0.08 65 1014.5
20260505183529 16 25 4.8 12.9 0.00 0.08 0.08 59 1014.5
20260505183043 16 0 0.0 11.3 0.00 0.08 0.08 57 1014.3
20260505182533 16 27 1.6 6.4 0.00 0.08 0.08 59 1014.3
20260505182028 16 0 0.0 6.4 0.00 0.08 0.08 57 1014.5
20260505181543 16 0 1.6 8.0 0.00 0.08 0.08 60 1014.5
20260505181032 16 0 0.0 9.7 0.00 0.08 0.08 60 1014.6
20260505180531 15 29 3.2 9.7 0.00 0.08 0.08 63 1014.6
20260505180039 15 31 1.6 4.8 0.00 0.08 0.08 62 1014.8
20260505175531 15 31 0.0 9.7 0.00 0.08 0.08 63 1014.8
20260505175029 15 32 0.0 9.7 0.03 0.08 0.08 63 1014.9
20260505174542 15 0 3.2 9.7 0.03 0.08 0.08 66 1015.0
20260505174028 14 0 0.0 6.4 0.03 0.08 0.08 64 1015.1
20260505173527 13 33 0.0 8.0 0.03 0.08 0.08 67 1015.1
20260505173043 13 0 3.2 8.0 0.03 0.08 0.08 67 1015.1
20260505172528 13 33 1.6 14.5 0.03 0.08 0.08 71 1015.0
20260505172028 13 33 4.8 14.5 0.03 0.08 0.08 70 1015.3
20260505171537 13 33 3.2 9.7 0.03 0.08 0.08 73 1015.4
20260505171029 13 32 3.2 9.7 0.05 0.08 0.08 75 1015.5
20260505170528 13 0 0.0 4.8 0.05 0.08 0.08 78 1015.5
20260505170045 12 35 0.0 3.2 0.05 0.08 0.08 80 1015.6
20260505165528 12 35 0.0 3.2 0.05 0.08 0.08 80 1015.5
20260505165028 12 0 0.0 1.6 0.03 0.05 0.05 83 1015.5
20260505164544 11 0 0.0 4.8 0.05 0.05 0.05 81 1015.6
20260505164025 11 0 0.0 4.8 0.05 0.05 0.05 82 1015.6
20260505163530 11 35 0.0 4.8 0.05 0.05 0.05 81 1015.7
20260505163037 11 34 0.0 4.8 0.05 0.05 0.05 82 1015.6
20260505162530 11 34 1.6 4.8 0.05 0.05 0.05 82 1015.6
20260505162028 11 0 0.0 4.8 0.05 0.05 0.05 82 1015.5
20260505161537 11 31 0.0 4.8 0.05 0.05 0.05 81 1015.5
20260505161029 11 0 0.0 9.7 0.03 0.03 0.03 79 1015.6
20260505160529 11 0 0.0 9.7 0.03 0.03 0.03 78 1015.7
20260505153043 14 0 1.6 9.7 0.00 0.00 0.00 62 1015.3
20260505152529 14 360 3.2 9.7 0.00 0.00 0.00 59 1015.3
20260505152028 14 360 1.6 6.4 0.00 0.00 0.00 57 1015.0
20260505151555 13 3 0.0 4.8 0.00 0.00 0.00 60 1015.1
20260505151029 13 360 0.0 3.2 0.00 0.00 0.00 66 1015.3
20260505150529 13 0 0.0 1.6 0.00 0.00 0.00 68 1015.3
20260505140528 14 0 0.0 1.6 0.00 0.00 0.00 56 1015.4
20260505125028 14 360 0.0 3.2 0.00 0.00 0.00 48 1014.5
20260505124540 14 0 0.0 0.0 0.00 0.00 0.00 47 1014.3
20260505124028 14 0 0.0 0.0 0.00 0.00 0.00 46 1014.3
20260505123528 14 0 0.0 0.0 0.00 0.00 0.00 48 1014.3
20260505123034 14 0 0.0 1.6 0.00 0.00 0.00 47 1014.3
20260505122530 14 0 0.0 1.6 0.00 0.00 0.00 46 1014.4
20260505122028 14 0 0.0 1.6 0.00 0.00 0.00 45 1014.3
20260505121536 14 0 0.0 3.2 0.00 0.00 0.00 44 1014.3
20260505121029 14 0 0.0 3.2 0.00 0.00 0.00 44 1014.3
20260505120528 14 0 0.0 3.2 0.00 0.00 0.00 44 1014.5
20260505120039 15 0 0.0 0.0 0.00 0.00 0.00 44 1014.3
20260505115528 15 0 0.0 0.0 0.00 0.00 0.00 44 1014.4
20260505115025 15 0 0.0 1.6 0.00 0.00 0.00 44 1014.3